Location: Karwodrza
(49.9217°N, 21.0454°E)
Time: 16:30:10
(UTC+02:00)

N. Korean satellite - Visible Passes

Search period start: 19 October 2019 00:00
Search period end: 28 October 2019 23:00
Orbit: 455 x 508 km, 97.2° (Epoch: 18 October)

Date Brightness Start Highest point End Pass type
(mag) Time Alt. Az. Time Alt. Az. Time Alt. Az.
19 Oct 9.9 05:39:58 10° NE 05:42:27 17° E 05:44:58 10° SE visible
21 Oct 7.7 06:21:57 10° NNE 06:25:29 51° E 06:29:03 10° S visible
21 Oct 9.9 18:36:15 10° SW 18:38:38 17° W 18:41:02 10° NW visible
22 Oct 9.1 05:56:56 10° NE 06:00:04 27° E 06:03:13 10° SSE visible
22 Oct 8.6 18:10:01 10° SSW 18:13:09 32° W 18:16:20 10° NNW visible
23 Oct 10.1 05:32:26 10° NE 05:34:35 15° E 05:36:44 10° SE visible
24 Oct 10.3 18:55:05 10° WSW 18:56:15 11° W 18:57:27 10° WNW visible
25 Oct 8.1 06:14:08 10° NNE 06:17:38 42° E 06:21:08 10° S visible
25 Oct 9.5 18:28:01 10° SW 18:30:41 21° W 18:33:26 10° NW visible
26 Oct 9.4 05:49:13 10° NE 05:52:11 23° E 05:55:08 10° SSE visible
26 Oct 8.1 18:01:57 10° S 18:05:14 40° W 18:08:35 10° NNW visible
27 Oct 10.3 04:24:59 10° ENE 04:26:38 13° E 04:28:18 10° ESE visible
28 Oct 7.1 05:31:26 10° NNE 05:35:07 68° ESE 05:38:48 10° S visible
28 Oct 10.1 17:46:22 10° WSW 17:48:16 14° W 17:50:12 10° NW visible
